Powrót do katalogu

DELTA 1 DEB

LostUNKNOWN
NORAD 27788·DEBRIS·🇺🇸 United States

Wystrzelony Nov 6, 1965 z Cape Canaveral Space Force Station

Loading…

Następne Przeloty (najbliższe 24 godziny)

TLE

NieaktualneSource: Space-Track

Epoka: Apr 14, 2026, 05:10 UTC

1 27788U 65089E   26104.21538022  .00001157  00000-0  58571-2 0  9998
2 27788  59.3742 272.8136 0602304 187.7858 351.2339 12.29007046606034

Śledź DELTA 1 DEB w czasie rzeczywistym z AllMySat

Download on the App Store